When you browse on this site, cookies collect data to enhance your experience and personalize the content and advertising you see.
Visit our Privacy Policy to learn more. By continuing to use the site, you agree to this use of cookies and data.
  • en Suisse
  • Liste des pays
  • À 7 jours
  • Température de l'eau
  • Carte météo
  • Widgets météo
  • user-avatar
    Se connecter

    Météo par heure à Richmond

    Ce jour, 5 Décembre, Jeudi

    Heure Température Précipitation Vent Pression Humidité
    00:00 +4°C° 0 mm 3 m/s 751 mmHg 68%
    01:00 +5°C° 0 mm 2 m/s 751 mmHg 75%
    02:00 +4°C° 0.1 mm 3 m/s 752 mmHg 75%
    03:00 +3°C° 0.1 mm 3 m/s 752 mmHg 75%
    04:00 +3°C° 0.1 mm 3 m/s 753 mmHg 75%
    05:00 +2°C° 0 mm 3 m/s 754 mmHg 73%
    06:00 +3°C° 0 mm 2 m/s 755 mmHg 72%
    07:00 +2°C° 0 mm 2 m/s 757 mmHg 74%
    08:00 +4°C° 0 mm 2 m/s 757 mmHg 66%
    09:00 +4°C° 0 mm 3 m/s 758 mmHg 57%
    10:00 +5°C° 0 mm 4 m/s 759 mmHg 49%
    11:00 +6°C° 0 mm 4 m/s 759 mmHg 46%
    12:00 +7°C° 0 mm 4 m/s 759 mmHg 43%
    13:00 +8°C° 0 mm 4 m/s 759 mmHg 40%
    14:00 +9°C° 0 mm 3 m/s 759 mmHg 43%
    15:00 +9°C° 0 mm 2 m/s 759 mmHg 45%
    16:00 +8°C° 0 mm 2 m/s 760 mmHg 48%
    17:00 +8°C° 0 mm 1 m/s 760 mmHg 52%
    18:00 +7°C° 0 mm 1 m/s 761 mmHg 56%
    19:00 +6°C° 0 mm 1 m/s 762 mmHg 61%
    20:00 +5°C° 0 mm 1 m/s 762 mmHg 62%
    21:00 +5°C° 0 mm 1 m/s 763 mmHg 64%
    22:00 +3°C° 0 mm 0 m/s 763 mmHg 66%
    23:00 +3°C° 0 mm 0 m/s 763 mmHg 67%

    Demain, 6 Décembre, Vendredi

    Heure Température Précipitation Vent Pression Humidité
    00:00 +4°C° 0 mm 1 m/s 764 mmHg 68%
    01:00 +4°C° 0 mm 1 m/s 764 mmHg 70%
    02:00 +3°C° 0 mm 1 m/s 764 mmHg 71%
    03:00 +3°C° 0 mm 1 m/s 764 mmHg 73%
    04:00 +3°C° 0 mm 1 m/s 763 mmHg 74%
    05:00 +3°C° 0 mm 1 m/s 763 mmHg 74%
    06:00 +2°C° 0 mm 2 m/s 764 mmHg 75%
    07:00 +2°C° 0 mm 2 m/s 764 mmHg 75%
    08:00 +4°C° 0 mm 2 m/s 764 mmHg 71%
    09:00 +4°C° 0 mm 3 m/s 763 mmHg 66%
    10:00 +6°C° 0 mm 4 m/s 763 mmHg 61%
    11:00 +7°C° 0 mm 4 m/s 763 mmHg 59%
    12:00 +10°C° 0 mm 4 m/s 762 mmHg 57%
    13:00 +11°C° 0 mm 4 m/s 762 mmHg 55%
    14:00 +11°C° 0 mm 3 m/s 761 mmHg 57%
    15:00 +11°C° 0 mm 3 m/s 761 mmHg 58%
    16:00 +12°C° 0 mm 2 m/s 761 mmHg 60%
    17:00 +10°C° 0 mm 2 m/s 761 mmHg 63%
    18:00 +10°C° 0 mm 2 m/s 762 mmHg 65%
    19:00 +9°C° 0 mm 2 m/s 762 mmHg 67%
    20:00 +9°C° 0 mm 2 m/s 762 mmHg 68%
    21:00 +9°C° 0 mm 2 m/s 762 mmHg 69%
    22:00 +9°C° 0 mm 2 m/s 762 mmHg 70%
    23:00 +9°C° 0 mm 3 m/s 763 mmHg 72%

    Après-demain, 7 Décembre, Samedi

    Heure Température Précipitation Vent Pression Humidité
    00:00 +8°C° 0 mm 3 m/s 763 mmHg 74%
    01:00 +7°C° 0 mm 4 m/s 764 mmHg 75%
    02:00 +5°C° 0 mm 4 m/s 764 mmHg 71%
    03:00 +4°C° 0 mm 4 m/s 765 mmHg 67%
    04:00 +3°C° 0 mm 4 m/s 765 mmHg 62%
    05:00 +2°C° 0 mm 3 m/s 766 mmHg 63%
    06:00 +2°C° 0 mm 3 m/s 767 mmHg 64%
    07:00 +1°C° 0 mm 3 m/s 767 mmHg 65%
    08:00 +2°C° 0 mm 3 m/s 768 mmHg 61%
    09:00 +3°C° 0 mm 3 m/s 768 mmHg 57%
    10:00 +3°C° 0 mm 3 m/s 769 mmHg 52%
    11:00 +4°C° 0 mm 3 m/s 768 mmHg 50%
    12:00 +5°C° 0 mm 3 m/s 768 mmHg 47%
    13:00 +7°C° 0 mm 2 m/s 768 mmHg 44%
    14:00 +7°C° 0 mm 2 m/s 768 mmHg 46%
    15:00 +7°C° 0 mm 2 m/s 768 mmHg 47%
    16:00 +8°C° 0 mm 1 m/s 768 mmHg 49%
    17:00 +6°C° 0 mm 1 m/s 768 mmHg 52%
    18:00 +5°C° 0 mm 1 m/s 769 mmHg 55%
    19:00 +4°C° 0 mm 1 m/s 770 mmHg 58%
    20:00 +3°C° 0 mm 1 m/s 770 mmHg 61%
    21:00 +3°C° 0 mm 1 m/s 770 mmHg 63%
    22:00 +2°C° 0 mm 1 m/s 770 mmHg 65%
    23:00 +2°C° 0 mm 1 m/s 770 mmHg 66%

    8 Décembre, Dimanche

    Heure Température Précipitation Vent Pression Humidité
    00:00 +1°C° 0 mm 1 m/s 770 mmHg 67%
    01:00 +1°C° 0 mm 1 m/s 771 mmHg 68%
    02:00 +1°C° 0 mm 1 m/s 770 mmHg 68%
    03:00 +1°C° 0 mm 1 m/s 770 mmHg 68%
    04:00 +1°C° 0 mm 1 m/s 770 mmHg 68%
    05:00 +1°C° 0 mm 1 m/s 770 mmHg 67%
    06:00 +1°C° 0 mm 1 m/s 771 mmHg 65%
    07:00 0°C° 0 mm 0 m/s 771 mmHg 64%
    08:00 +3°C° 0 mm 1 m/s 771 mmHg 58%
    09:00 +5°C° 0 mm 1 m/s 771 mmHg 53%
    10:00 +7°C° 0 mm 1 m/s 771 mmHg 47%
    11:00 +8°C° 0 mm 1 m/s 770 mmHg 46%
    12:00 +9°C° 0 mm 1 m/s 770 mmHg 46%
    13:00 +9°C° 0 mm 2 m/s 769 mmHg 45%
    14:00 +10°C° 0 mm 1 m/s 769 mmHg 50%
    15:00 +10°C° 0 mm 1 m/s 768 mmHg 56%
    16:00 +9°C° 0 mm 1 m/s 767 mmHg 61%
    17:00 +8°C° 0 mm 1 m/s 768 mmHg 67%
    18:00 +7°C° 0 mm 1 m/s 768 mmHg 72%
    19:00 +6°C° 0 mm 1 m/s 768 mmHg 77%
    20:00 +5°C° 0 mm 0 m/s 767 mmHg 78%
    21:00 +5°C° 0 mm 0 m/s 767 mmHg 79%
    22:00 +6°C° 0 mm 0 m/s 767 mmHg 79%
    23:00 +6°C° 0.2 mm 0 m/s 766 mmHg 82%

    9 Décembre, Lundi

    Heure Température Précipitation Vent Pression Humidité
    00:00 +6°C° 0.2 mm 0 m/s 766 mmHg 85%
    01:00 +6°C° 0.2 mm 0 m/s 765 mmHg 87%
    02:00 +7°C° 2 mm 1 m/s 765 mmHg 91%
    03:00 +7°C° 2 mm 1 m/s 764 mmHg 94%
    04:00 +8°C° 2 mm 1 m/s 764 mmHg 98%
    05:00 +8°C° 1.1 mm 1 m/s 763 mmHg 98%
    06:00 +9°C° 1.1 mm 1 m/s 763 mmHg 98%
    07:00 +8°C° 1.1 mm 0 m/s 762 mmHg 99%
    08:00 +10°C° 0.9 mm 1 m/s 762 mmHg 99%
    09:00 +11°C° 0.9 mm 1 m/s 762 mmHg 98%
    10:00 +13°C° 0.9 mm 2 m/s 761 mmHg 98%
    11:00 +13°C° 0.1 mm 2 m/s 760 mmHg 97%
    12:00 +13°C° 0.1 mm 2 m/s 760 mmHg 96%
    13:00 +13°C° 0.1 mm 2 m/s 759 mmHg 95%
    14:00 +13°C° 0 mm 2 m/s 758 mmHg 95%
    15:00 +14°C° 0 mm 2 m/s 758 mmHg 96%
    16:00 +14°C° 0 mm 2 m/s 757 mmHg 96%
    17:00 +14°C° 0 mm 2 m/s 757 mmHg 96%
    18:00 +14°C° 0 mm 2 m/s 757 mmHg 96%
    19:00 +13°C° 0 mm 3 m/s 757 mmHg 96%
    20:00 +13°C° 0 mm 3 m/s 757 mmHg 94%
    21:00 +13°C° 0 mm 3 m/s 757 mmHg 92%
    22:00 +14°C° 0 mm 4 m/s 756 mmHg 90%
    23:00 +14°C° 0 mm 4 m/s 756 mmHg 90%

    10 Décembre, Mardi

    Heure Température Précipitation Vent Pression Humidité
    00:00 +14°C° 0 mm 4 m/s 755 mmHg 90%
    01:00 +14°C° 0 mm 4 m/s 755 mmHg 90%
    02:00 +14°C° 0.1 mm 4 m/s 754 mmHg 91%
    03:00 +14°C° 0.1 mm 4 m/s 753 mmHg 92%
    04:00 +15°C° 0.1 mm 4 m/s 753 mmHg 93%
    05:00 +15°C° 1.6 mm 5 m/s 752 mmHg 92%
    06:00 +16°C° 1.6 mm 6 m/s 752 mmHg 90%
    07:00 +17°C° 1.6 mm 7 m/s 752 mmHg 88%
    08:00 +16°C° 0.5 mm 5 m/s 752 mmHg 88%
    09:00 +17°C° 0.5 mm 4 m/s 753 mmHg 88%
    10:00 +16°C° 0.5 mm 2 m/s 753 mmHg 88%
    11:00 +16°C° 0.3 mm 2 m/s 753 mmHg 88%
    12:00 +14°C° 0.3 mm 3 m/s 754 mmHg 88%
    13:00 +14°C° 0.3 mm 3 m/s 754 mmHg 89%
    14:00 +14°C° 0.8 mm 3 m/s 754 mmHg 88%
    15:00 +14°C° 0.8 mm 4 m/s 755 mmHg 88%
    16:00 +13°C° 0.8 mm 4 m/s 755 mmHg 88%
    17:00 +13°C° 0.1 mm 4 m/s 756 mmHg 87%
    18:00 +13°C° 0.1 mm 4 m/s 756 mmHg 87%
    19:00 +12°C° 0.1 mm 4 m/s 757 mmHg 87%
    20:00 +11°C° 0.1 mm 4 m/s 758 mmHg 82%
    21:00 +10°C° 0.1 mm 4 m/s 759 mmHg 78%
    22:00 +8°C° 0.1 mm 4 m/s 760 mmHg 74%
    23:00 +7°C° 0 mm 4 m/s 760 mmHg 70%
    Voir plus